Vorticity
3 3 3 3 3 3 3 2 2 2 2 2 2 2 2 2 3 3 4 5 6 6 7 6 6 7 7 9 11 10 8 5 6 5 4 5 7 9 9 9 8 3 4 7 9 10 8 4 4 10 15 14 10 6 6 9 7 3 4 5 6 5 3 7 4 3 6 2 3 7 9 7 3 5 5 3 0 3 5 2 3 4 2 4 7 0 2 13
6 6 6 6 6 6 5 5 5 5 4 4 4 3 3 2 2 2 2 2 3 4 6 7 6 7 6 6 8 10 10 8 6 5 5 5 5 8 8 9 10 7 5 5 7 9 5 3 2 6 12 12 9 8 6 8 8 3 6 5 2 7 8 7 4 4 4 -0 3 9 7 5 5 5 2 1 2 4 4 4 5 4 4 5 6 4 1 9
8 8 8 8 8 8 8 8 7 7 7 7 6 6 5 5 4 3 3 2 2 3 3 4 6 7 6 6 6 8 10 10 9 6 6 6 4 6 6 7 9 10 8 2 7 10 1 -1 2 5 12 14 9 7 5 8 9 4 7 6 -2 4 10 8 5 5 2 -2 4 10 4 1 3 4 1 2 4 5 8 8 7 7 9 6 5 8 0 1
8 9 9 8 8 8 8 8 8 8 8 8 8 8 7 7 7 6 6 4 4 3 1 2 4 5 6 6 6 6 7 9 12 9 6 6 4 4 5 6 7 9 11 5 7 12 7 3 2 4 11 17 15 9 5 6 9 6 4 6 1 -1 6 8 4 4 2 0 6 8 3 4 5 4 4 6 8 9 11 8 6 9 10 7 8 9 0 -2
10 10 10 10 9 9 9 9 8 8 8 8 8 8 8 8 8 8 7 7 6 5 4 3 2 2 3 6 6 6 7 6 9 11 8 6 5 4 3 4 6 8 12 9 6 9 13 9 0 3 8 12 19 16 7 5 7 7 4 6 5 1 3 5 9 12 7 5 8 4 4 8 7 5 6 7 6 8 9 6 6 9 9 9 11 10 4 3
12 12 12 12 12 11 11 11 10 10 10 9 9 9 8 8 8 8 7 8 8 7 7 6 4 2 2 4 5 6 7 6 7 11 10 8 6 5 4 3 5 7 10 12 9 5 10 12 3 3 7 6 16 18 6 3 5 6 6 5 4 3 1 5 19 20 8 7 10 5 6 8 5 5 5 2 2 5 6 5 6 8 7 7 9 10 9 8
12 11 11 12 12 12 12 12 12 12 11 10 10 11 11 10 9 9 8 8 8 8 7 8 7 6 4 2 2 3 6 7 5 7 10 10 9 7 6 4 4 6 7 11 11 6 5 11 8 3 5 7 14 16 6 2 4 6 7 6 4 3 0 3 13 7 -0 7 9 4 5 5 5 5 3 3 4 6 6 5 5 5 5 8 10 10 9 11
10 10 10 10 10 11 10 10 11 11 12 11 11 11 12 12 11 11 10 9 9 9 8 8 8 8 7 5 3 3 3 5 5 5 7 9 10 10 8 5 5 5 5 8 10 8 5 7 10 4 4 5 7 12 10 4 3 5 7 6 5 4 1 2 4 -2 -1 8 6 4 4 3 6 5 3 6 7 7 8 6 4 3 6 10 11 9 8 13
7 8 8 8 8 9 9 9 9 10 10 10 10 9 11 11 12 12 11 11 10 10 10 9 9 9 9 7 6 4 3 3 4 5 7 7 9 11 10 7 5 5 4 5 9 11 9 7 8 6 3 3 4 8 11 7 3 4 6 7 5 6 3 1 4 3 2 8 8 5 3 3 7 6 5 5 3 4 7 5 4 5 7 8 10 9 7 8
4 5 5 6 6 6 7 7 7 7 8 8 8 8 9 9 9 10 11 11 11 12 12 11 10 10 10 9 8 7 5 4 3 5 6 7 7 8 11 9 5 5 4 4 6 10 12 8 5 7 4 3 5 6 9 9 5 3 5 7 5 5 6 2 4 7 6 9 10 5 2 3 4 5 9 7 3 3 5 5 4 7 6 6 10 10 7 7
5 6 6 6 6 6 6 6 6 6 6 6 6 6 7 7 7 8 9 10 10 10 12 12 12 11 11 11 10 9 8 6 5 4 4 5 6 5 8 11 9 5 5 4 4 6 10 9 6 7 5 3 3 4 7 7 4 4 4 6 6 5 6 5 4 6 8 8 6 4 1 -1 0 4 8 7 7 7 8 5 5 10 6 5 11 10 8 7
7 7 7 8 8 8 8 7 7 7 7 7 6 6 6 6 6 6 7 7 8 9 9 11 11 12 12 11 12 12 10 8 7 5 3 3 6 5 4 8 11 8 6 5 4 4 7 10 9 6 6 5 3 1 5 6 2 3 4 4 6 8 6 5 5 5 7 6 3 3 -1 -2 2 5 5 7 9 8 7 4 6 12 6 4 10 9 8 5
7 7 7 8 8 8 8 8 8 8 8 8 8 8 8 7 7 7 6 5 6 6 8 8 9 11 11 11 11 13 13 12 10 7 5 4 4 5 4 5 8 10 9 6 6 6 6 9 11 8 6 6 5 1 2 6 2 0 5 6 5 7 7 6 6 6 5 5 3 1 -1 2 3 4 4 7 10 7 3 2 5 9 7 6 9 7 7 3
7 8 7 8 9 9 9 9 9 9 9 9 8 8 8 8 8 8 7 7 6 4 5 6 7 9 9 10 9 10 13 14 14 12 8 6 4 3 4 5 5 7 10 9 7 7 6 7 9 11 9 5 6 4 1 5 4 -1 2 10 10 8 7 7 8 7 4 4 5 2 2 7 5 3 4 4 9 10 4 3 4 6 8 9 7 7 5 2
6 7 6 7 8 8 8 9 9 10 10 10 9 9 9 9 9 8 7 8 9 7 5 5 5 7 8 9 8 7 10 12 14 15 12 9 6 4 4 4 4 4 7 10 9 7 6 6 6 10 13 9 6 5 3 3 5 -1 -4 6 14 11 7 7 8 7 4 1 3 4 4 6 3 2 4 2 7 11 7 6 5 3 8 11 6 5 4 3
4 5 4 4 3 3 3 4 5 7 8 8 9 9 9 9 10 10 9 9 9 9 7 6 5 5 6 7 8 7 7 8 11 14 16 13 9 6 5 3 3 4 5 8 10 9 7 7 6 6 10 12 9 6 5 4 4 -1 -6 -0 9 10 7 7 6 6 5 1 1 4 4 3 2 2 2 0 7 11 8 8 7 4 9 10 4 3 4 4
4 5 5 3 2 1 3 4 5 5 5 5 6 7 8 8 9 9 9 9 10 10 10 10 9 6 4 4 7 7 6 7 7 9 13 16 13 9 7 4 2 3 4 5 8 10 9 8 8 6 7 11 12 9 5 4 6 3 -4 -4 2 7 7 5 5 4 5 3 1 2 2 2 3 4 4 3 8 11 8 8 8 5 7 8 3 2 4 3
8 7 7 7 8 8 10 11 11 10 8 6 5 5 6 6 7 7 6 7 6 8 8 9 10 10 8 5 4 5 6 6 6 6 9 14 15 13 9 6 4 3 3 3 4 7 9 8 7 7 6 7 12 13 9 6 8 8 1 -3 -3 1 4 3 3 4 5 5 4 5 4 2 4 5 6 8 9 9 8 7 6 2 3 9 6 2 4 3
11 12 12 11 11 11 10 9 8 7 7 6 5 5 5 5 7 6 3 2 2 4 7 8 10 10 11 10 5 5 5 5 7 6 6 8 13 16 13 9 6 4 3 2 2 3 6 9 9 7 7 9 11 14 15 12 9 9 7 3 -1 -1 0 1 1 2 4 4 6 9 8 4 4 5 3 6 9 9 8 7 5 2 2 8 7 4 3 1
10 10 10 8 7 5 5 5 4 4 5 6 7 8 8 8 10 9 4 0 1 3 5 7 10 9 9 10 10 8 5 4 6 7 8 7 7 12 15 14 9 7 5 3 3 2 3 7 8 8 8 9 10 11 15 16 13 10 8 7 5 3 2 1 1 1 2 3 3 6 10 6 4 5 1 2 8 10 10 9 7 4 3 6 6 6 5 1
8 7 6 4 4 4 5 6 6 6 6 8 9 10 10 9 11 14 11 7 2 1 3 5 11 13 9 8 10 11 8 6 4 5 8 8 6 6 10 14 14 11 9 6 4 3 4 4 6 10 9 5 6 8 10 13 16 14 9 8 8 7 7 4 2 2 2 4 3 2 7 8 6 6 2 1 6 9 10 10 9 7 4 4 7 8 5 1
7 6 6 6 7 7 7 7 7 6 6 7 9 10 10 10 9 9 11 11 6 4 7 10 15 19 13 8 8 9 10 8 6 5 6 7 7 6 5 9 13 14 12 9 5 3 4 1 3 11 11 5 5 7 7 7 12 15 12 10 9 8 10 8 5 4 3 5 7 4 5 7 6 6 6 4 3 5 9 9 10 8 2 2 6 7 3 -1
6 6 7 8 8 8 10 10 10 10 10 10 11 11 11 11 11 11 12 14 13 12 14 16 20 22 19 13 8 7 9 10 8 6 6 7 7 7 7 6 8 11 13 13 10 6 4 -0 2 10 9 7 7 5 6 7 8 11 11 11 11 8 9 10 7 6 4 5 8 8 8 8 4 5 8 8 4 2 7 9 9 6 1 1 2 2 1 -2
8 8 10 11 11 14 17 17 18 19 18 17 16 16 17 18 19 19 19 19 19 19 18 18 21 23 22 19 13 8 8 9 10 9 7 7 8 8 9 7 5 6 9 13 14 12 8 2 4 7 4 7 9 5 5 7 8 9 8 10 12 11 10 10 8 7 5 5 8 8 11 11 6 6 8 9 7 3 6 9 9 6 -0 -2 0 2 1 -3
12 13 16 17 18 21 21 22 23 21 19 20 20 20 22 25 26 27 25 26 28 27 24 22 22 21 23 23 20 15 12 10 9 12 10 9 9 9 9 9 7 5 5 8 11 14 13 9 7 4 0 3 8 8 6 5 7 9 7 7 10 13 12 10 9 9 5 4 6 7 12 13 9 8 6 7 9 5 4 7 9 8 -0 -2 3 5 4 -0
17 18 19 20 21 21 20 21 19 17 19 20 18 17 17 18 21 24 23 23 24 26 26 25 22 22 23 23 23 19 16 15 12 11 12 11 11 11 10 10 9 8 7 5 5 9 14 16 11 3 0 2 5 7 6 5 7 7 6 6 9 12 13 11 8 8 7 6 6 6 10 13 12 11 5 4 9 6 4 6 9 9 1 1 5 6 7 4
21 22 21 21 21 20 19 17 13 12 14 13 13 13 12 12 13 15 18 20 21 23 24 23 22 24 23 23 27 24 18 18 15 13 14 14 13 13 12 12 11 10 8 5 3 5 10 15 15 8 2 1 4 6 7 8 7 6 6 7 8 10 13 13 8 7 7 7 7 6 7 10 13 13 6 2 7 9 6 5 9 9 3 3 5 5 8 5
21 21 20 18 17 14 12 10 6 6 5 4 7 7 6 8 9 11 14 13 14 16 18 18 17 18 19 20 24 25 25 23 18 16 17 16 16 15 13 12 12 11 10 7 4 5 7 11 15 15 7 2 3 4 7 10 8 5 5 6 7 9 12 14 10 7 6 6 7 6 6 9 13 14 11 6 6 9 9 6 9 8 4 4 2 4 9 3
17 16 13 11 9 7 6 5 4 6 9 11 14 14 12 8 4 5 7 5 5 8 10 11 12 13 16 19 19 18 22 23 20 20 19 16 18 19 16 14 12 11 11 9 6 6 6 7 10 14 13 7 3 3 5 9 9 5 3 3 7 9 9 12 13 9 4 3 4 5 4 7 12 13 9 10 9 8 11 9 7 7 4 3 2 5 9 2
14 12 8 5 6 6 6 7 8 10 12 11 14 20 24 23 15 8 5 4 2 2 3 5 7 7 8 11 14 15 17 17 15 18 20 19 19 19 18 18 13 11 13 11 9 7 5 4 5 9 13 11 6 4 4 6 10 8 2 -0 4 8 8 9 14 12 5 2 2 4 2 1 13 18 6 7 14 9 9 10 6 5 3 3 6 6 5 2
11 10 8 5 5 7 8 10 11 10 5 2 4 9 15 23 26 20 15 13 9 8 10 9 8 7 5 5 6 9 13 15 14 14 14 16 20 21 20 22 19 14 13 13 11 9 7 5 4 6 10 11 10 7 4 2 7 10 5 -0 1 5 7 8 12 13 8 4 3 5 3 -3 12 27 9 1 15 13 6 9 6 6 5 3 8 7 4 3
10 9 8 6 7 8 8 10 12 8 2 -1 0 2 4 10 17 21 23 21 16 17 19 17 15 15 12 9 7 5 6 9 12 14 14 11 14 20 22 23 24 19 15 14 13 12 9 6 5 5 7 9 10 9 7 1 2 7 7 1 1 3 5 6 9 11 10 7 6 6 4 -6 -1 22 18 2 11 16 10 9 7 6 8 5 6 5 4 5
9 9 8 7 8 8 8 10 12 11 9 5 2 2 3 5 9 14 14 12 11 14 15 14 17 19 19 18 15 12 9 6 4 6 11 11 9 15 20 21 22 23 21 17 15 15 12 8 7 5 4 7 8 9 10 4 0 4 7 4 2 2 4 6 7 7 8 8 8 8 4 -6 -11 8 21 9 7 15 14 12 9 6 7 7 6 5 3 4
12 9 7 8 9 9 10 11 11 12 13 14 12 9 5 4 8 12 9 8 7 5 3 4 6 10 15 20 20 19 16 14 9 5 5 7 7 9 16 18 19 22 24 22 19 17 12 10 9 6 4 5 6 8 10 10 5 4 8 9 5 2 4 8 7 6 7 7 10 10 3 -2 -4 4 18 15 6 11 15 14 13 8 6 8 6 4 2 2
15 9 7 9 9 9 11 11 11 11 12 14 17 16 12 6 7 12 12 8 4 1 1 2 3 4 5 10 16 18 18 18 17 14 10 9 7 6 8 12 15 20 24 25 24 21 15 12 9 6 6 6 6 6 8 11 10 5 4 9 8 4 2 5 7 6 7 9 10 11 5 -2 -4 -1 12 17 9 9 15 16 17 13 7 7 4 1 2 2
12 9 9 10 10 10 11 11 11 11 11 12 14 16 16 11 8 12 14 9 4 2 4 3 4 5 4 4 8 10 14 16 16 17 16 13 12 11 8 6 7 12 19 25 26 25 22 16 9 6 7 9 7 5 6 8 12 8 2 4 8 7 3 5 8 4 5 11 9 9 10 4 -2 -4 3 13 12 12 14 12 17 18 9 5 4 2 3 3
12 11 10 9 10 11 11 12 13 13 13 12 13 14 16 15 12 12 13 14 10 5 5 5 3 4 4 5 5 3 4 9 11 13 14 13 13 13 14 11 7 5 10 18 23 28 29 18 10 8 7 9 8 5 6 6 10 12 8 5 7 7 4 6 8 5 5 10 7 4 10 11 8 5 4 8 12 14 15 12 15 19 10 4 5 4 4 6
12 11 10 11 13 14 14 15 16 16 16 16 15 14 14 15 15 13 13 15 14 11 8 7 5 4 5 6 6 4 2 2 4 6 8 11 11 11 13 15 14 8 6 10 15 27 32 22 14 12 8 9 10 5 6 7 8 12 12 8 6 5 5 5 7 6 4 6 5 3 8 10 9 7 5 8 11 11 15 17 15 14 10 7 8 8 8 8
11 12 13 14 15 16 16 15 14 14 16 17 17 18 18 17 16 16 14 14 15 15 12 10 9 7 7 7 6 7 7 4 2 2 2 5 6 7 9 11 14 13 9 7 9 18 29 27 21 15 10 10 10 7 7 6 7 11 12 10 8 6 7 7 8 8 5 6 4 2 7 9 6 3 3 9 14 11 12 17 14 10 10 10 11 12 12 9
14 14 14 14 14 15 13 12 13 14 15 16 17 18 18 18 17 16 15 15 16 17 16 15 14 11 9 8 7 8 9 8 6 5 4 4 4 4 5 6 9 13 12 10 9 10 19 29 26 17 14 14 10 8 8 4 6 11 10 9 7 5 5 6 7 8 6 7 5 2 6 8 6 6 5 8 14 13 11 14 14 9 9 10 10 12 11 8
13 11 12 14 13 13 12 13 15 15 15 15 16 16 16 16 16 16 16 17 16 16 16 15 13 12 10 8 8 8 9 9 7 5 4 3 4 4 5 5 5 8 11 11 12 10 12 23 26 16 17 22 14 10 8 2 6 12 11 9 7 4 3 3 5 6 6 7 5 4 7 6 6 9 6 5 13 16 11 13 16 10 6 8 8 7 8 7
9 9 15 16 13 12 13 15 15 15 16 16 16 15 15 15 15 15 15 14 14 13 12 12 10 10 10 10 11 11 11 12 11 10 8 6 7 6 7 9 8 7 9 8 11 13 10 17 22 15 18 25 19 14 9 3 6 12 12 11 10 7 4 3 4 4 6 7 4 4 8 5 5 9 7 5 12 17 12 11 14 11 4 5 7 5 5 7
7 12 18 14 11 13 14 14 16 16 17 17 17 16 15 15 14 13 11 10 11 10 9 10 10 10 11 11 12 15 15 17 18 18 18 16 14 13 10 12 13 11 10 8 8 12 12 14 17 15 17 22 21 22 18 6 5 13 14 12 11 9 6 4 4 3 5 6 4 6 8 4 3 8 9 7 12 17 13 9 13 14 4 0 6 7 4 5
10 17 18 12 10 13 13 15 17 18 18 16 16 15 13 13 12 11 11 10 11 12 13 14 13 14 18 16 16 18 17 19 19 17 17 18 18 17 13 13 16 17 15 11 8 9 12 14 14 13 15 17 18 24 24 11 5 11 14 14 13 11 8 6 5 5 4 5 5 5 6 4 5 8 8 7 12 18 17 10 9 13 9 2 5 7 4 5
15 17 15 11 11 12 13 15 16 16 16 14 14 13 11 11 11 9 10 10 11 13 14 16 18 19 21 20 22 27 29 32 35 33 31 30 28 26 21 16 17 19 19 17 12 8 10 13 14 10 11 13 14 21 24 14 6 8 11 13 14 12 10 7 5 5 5 4 5 4 4 7 8 8 8 9 10 14 19 16 9 10 13 12 11 9 5 5
14 12 11 11 12 12 12 15 17 15 14 13 13 11 9 8 8 7 8 9 9 10 13 17 19 21 24 30 35 37 36 35 38 40 37 33 32 32 30 27 24 22 22 22 18 11 8 10 14 12 9 11 15 22 26 17 9 9 10 12 13 12 10 8 5 4 4 4 4 4 5 6 7 7 9 11 10 7 13 17 13 9 8 10 13 12 9 8
9 8 10 10 11 13 12 14 17 15 13 14 12 11 10 8 8 9 9 9 10 13 19 22 24 28 36 40 36 28 24 23 23 23 23 23 25 26 26 28 30 29 30 28 25 20 12 8 11 13 10 9 12 20 25 20 13 10 10 11 12 12 10 8 6 4 3 3 3 4 5 5 6 8 7 10 13 8 6 13 14 11 8 7 8 10 11 10
6 8 10 10 12 13 12 14 17 15 14 14 12 10 10 8 10 12 11 11 15 20 25 28 29 37 40 32 22 16 16 19 17 14 17 20 23 26 26 26 27 29 31 31 29 27 19 11 10 13 12 9 9 16 22 21 16 11 9 11 12 12 11 8 6 5 4 3 2 3 5 5 6 9 8 9 14 10 7 11 12 10 11 9 6 7 9 7
7 9 9 10 12 12 12 15 15 15 16 14 11 9 9 9 11 12 11 16 21 24 29 29 26 32 30 15 7 9 8 9 11 13 17 19 19 23 26 26 23 23 26 29 30 30 25 15 11 12 14 11 8 13 20 21 19 13 8 10 13 14 13 10 7 6 4 3 3 2 4 7 6 7 9 12 15 12 8 9 11 10 11 10 5 5 7 5
7 8 8 10 12 11 13 16 15 16 16 15 12 11 11 12 14 12 12 20 26 25 27 25 15 19 22 11 6 11 11 8 10 11 13 16 19 20 23 25 22 20 22 23 24 29 29 21 14 13 14 11 7 12 20 21 20 17 8 7 14 15 13 11 8 8 6 4 4 2 2 7 8 4 7 13 14 14 10 8 11 10 9 9 8 7 7 5
7 9 8 9 11 10 12 14 14 16 16 14 14 14 13 14 15 14 14 22 29 25 22 20 12 12 18 16 14 17 17 15 14 12 9 8 10 11 13 18 19 18 21 22 22 27 28 22 19 18 15 11 7 11 20 21 21 20 10 5 14 17 12 11 9 7 8 4 3 4 1 6 10 5 8 15 12 11 11 9 11 11 8 9 11 11 9 5
7 9 8 7 7 7 10 13 14 15 15 14 14 15 14 15 17 16 16 24 30 25 20 20 16 13 15 15 14 14 15 15 15 15 13 10 9 8 6 7 9 10 14 17 21 27 27 20 20 23 19 13 11 12 17 22 23 23 13 4 12 18 12 11 11 8 9 5 4 6 3 4 10 7 12 20 12 7 12 12 10 11 11 12 12 11 10 7
Height
5865 5865 5864 5864 5864 5864 5863 5863 5863 5863 5863 5862 5862 5862 5862 5862 5862 5862 5862 5862 5862 5862 5862 5862 5863 5863 5863 5864 5864 5864 5864 5864 5864 5866 5866 5866 5866 5868 5868 5868 5870 5871 5872 5874 5876 5877 5878 5878 5879 5880 5880 5882 5883 5885 5886 5888 5890 5891 5892 5892 5892 5893 5894 5895 5896 5897 5898 5898 5899 5900 5900 5901 5902 5902 5903 5904 5904 5904 5905 5906 5906 5906 5906 5908 5908 5908 5910 5911
5863 5862 5862 5862 5862 5861 5861 5860 5860 5860 5860 5860 5860 5860 5860 5860 5860 5860 5860 5860 5860 5861 5860 5860 5861 5862 5862 5862 5862 5862 5862 5862 5862 5864 5864 5864 5866 5866 5866 5867 5868 5870 5870 5872 5873 5874 5876 5876 5877 5878 5878 5880 5882 5884 5886 5888 5888 5890 5890 5891 5892 5892 5894 5894 5896 5896 5896 5898 5898 5900 5900 5901 5902 5902 5902 5904 5904 5904 5906 5906 5906 5906 5906 5907 5908 5908 5910 5910
5860 5860 5860 5859 5858 5858 5858 5858 5858 5858 5857 5857 5857 5857 5857 5857 5857 5857 5857 5858 5858 5859 5859 5858 5859 5860 5860 5860 5860 5860 5860 5860 5862 5862 5862 5862 5864 5864 5865 5866 5866 5868 5868 5870 5871 5872 5873 5874 5874 5876 5876 5878 5880 5882 5884 5886 5888 5889 5890 5890 5892 5892 5893 5894 5895 5896 5896 5897 5898 5899 5900 5901 5901 5902 5902 5903 5904 5905 5906 5906 5906 5906 5907 5908 5908 5909 5910 5910
5858 5857 5856 5856 5856 5856 5856 5855 5854 5854 5854 5854 5854 5854 5854 5854 5854 5854 5854 5855 5856 5856 5856 5856 5856 5858 5858 5858 5858 5858 5858 5859 5860 5860 5860 5860 5862 5862 5864 5864 5864 5866 5867 5868 5870 5871 5872 5872 5874 5874 5876 5876 5878 5880 5883 5885 5886 5888 5888 5890 5891 5892 5892 5894 5894 5895 5896 5896 5897 5898 5900 5900 5900 5900 5902 5903 5904 5905 5906 5906 5906 5907 5908 5908 5908 5909 5909 5909
5855 5854 5854 5854 5853 5853 5852 5852 5852 5852 5851 5851 5851 5851 5851 5851 5851 5852 5852 5852 5852 5853 5854 5854 5854 5855 5856 5856 5856 5856 5856 5858 5858 5858 5858 5858 5860 5860 5862 5862 5862 5864 5866 5866 5868 5870 5871 5872 5874 5874 5875 5876 5878 5880 5882 5884 5884 5886 5887 5888 5890 5891 5892 5893 5894 5894 5895 5896 5897 5898 5899 5899 5900 5900 5902 5902 5903 5904 5905 5906 5906 5907 5908 5908 5908 5909 5909 5909
5852 5852 5852 5850 5850 5850 5850 5850 5849 5848 5848 5848 5848 5848 5848 5848 5848 5848 5848 5849 5849 5850 5850 5852 5852 5852 5853 5854 5854 5854 5854 5855 5855 5855 5856 5856 5858 5858 5859 5860 5860 5862 5864 5865 5866 5868 5870 5872 5872 5874 5875 5876 5878 5880 5880 5881 5883 5884 5886 5888 5888 5890 5891 5892 5893 5894 5895 5896 5898 5898 5898 5898 5900 5900 5901 5902 5902 5903 5904 5905 5906 5907 5908 5908 5908 5908 5909 5909
5850 5850 5849 5848 5848 5848 5847 5846 5846 5846 5846 5846 5846 5846 5844 5844 5844 5845 5845 5846 5846 5846 5848 5848 5849 5849 5850 5850 5851 5851 5852 5853 5852 5852 5854 5854 5856 5856 5857 5858 5858 5860 5862 5863 5864 5866 5868 5870 5872 5872 5873 5874 5876 5878 5878 5880 5882 5884 5885 5886 5886 5888 5890 5891 5892 5893 5894 5896 5897 5898 5898 5899 5900 5900 5901 5902 5902 5902 5904 5904 5905 5906 5907 5907 5908 5908 5909 5910
5848 5848 5847 5846 5845 5844 5844 5844 5843 5842 5842 5842 5843 5842 5842 5842 5842 5842 5842 5842 5843 5844 5844 5845 5846 5846 5846 5848 5848 5848 5848 5850 5850 5850 5852 5853 5854 5854 5855 5856 5856 5858 5860 5860 5862 5863 5864 5867 5869 5870 5872 5873 5874 5876 5877 5878 5880 5882 5883 5884 5884 5886 5888 5890 5891 5892 5894 5895 5896 5896 5898 5898 5900 5900 5902 5902 5902 5902 5903 5904 5905 5906 5906 5908 5908 5908 5909 5910
5846 5845 5844 5844 5842 5842 5841 5841 5840 5840 5840 5840 5840 5840 5839 5838 5838 5838 5838 5839 5840 5840 5840 5842 5842 5842 5844 5844 5844 5845 5846 5847 5848 5848 5850 5851 5852 5852 5853 5854 5854 5856 5857 5858 5860 5862 5863 5864 5866 5867 5868 5869 5870 5872 5874 5876 5879 5880 5880 5882 5883 5884 5887 5888 5890 5892 5894 5894 5894 5896 5896 5898 5900 5900 5902 5902 5901 5902 5902 5904 5904 5906 5906 5908 5908 5908 5908 5909
5844 5843 5842 5841 5840 5840 5838 5838 5837 5836 5836 5836 5836 5836 5836 5836 5835 5835 5836 5836 5837 5837 5837 5838 5838 5839 5840 5840 5841 5842 5842 5844 5846 5846 5848 5849 5850 5850 5850 5851 5852 5854 5854 5856 5858 5859 5860 5860 5861 5862 5864 5864 5866 5868 5871 5874 5876 5876 5876 5880 5882 5884 5886 5887 5889 5892 5893 5894 5894 5895 5896 5898 5899 5900 5902 5902 5900 5900 5902 5903 5904 5905 5906 5907 5908 5908 5908 5908
5842 5840 5840 5838 5838 5836 5836 5835 5834 5834 5832 5832 5833 5832 5832 5832 5832 5832 5832 5833 5834 5834 5834 5834 5834 5835 5836 5836 5838 5838 5840 5841 5842 5844 5844 5846 5846 5847 5848 5848 5850 5850 5852 5854 5855 5856 5856 5856 5858 5860 5862 5864 5866 5867 5869 5872 5873 5872 5874 5878 5880 5882 5884 5886 5888 5890 5892 5893 5894 5894 5896 5897 5898 5900 5901 5901 5900 5901 5902 5902 5904 5905 5906 5906 5908 5908 5908 5908
5838 5838 5836 5835 5834 5834 5832 5832 5830 5830 5829 5829 5829 5828 5828 5828 5828 5828 5829 5830 5830 5830 5831 5831 5831 5832 5832 5833 5834 5835 5836 5837 5839 5840 5841 5842 5844 5844 5845 5846 5847 5848 5850 5851 5852 5852 5854 5856 5857 5858 5860 5862 5864 5866 5868 5868 5869 5869 5872 5875 5878 5880 5883 5886 5888 5889 5890 5892 5892 5894 5896 5897 5898 5898 5900 5901 5901 5901 5902 5902 5904 5905 5906 5906 5907 5908 5908 5908
5835 5834 5834 5832 5831 5830 5829 5828 5827 5826 5825 5825 5824 5824 5824 5824 5824 5824 5826 5826 5826 5827 5828 5828 5828 5828 5828 5830 5831 5831 5832 5834 5836 5836 5838 5839 5840 5840 5842 5843 5844 5846 5847 5848 5849 5850 5852 5854 5855 5856 5858 5860 5860 5863 5866 5866 5866 5867 5870 5872 5874 5877 5881 5884 5885 5887 5889 5890 5891 5893 5894 5896 5896 5896 5898 5900 5900 5900 5900 5901 5902 5904 5906 5906 5906 5907 5907 5907
5832 5831 5830 5829 5828 5827 5826 5824 5823 5822 5821 5820 5820 5820 5819 5819 5819 5820 5822 5822 5822 5824 5824 5825 5824 5825 5825 5826 5827 5828 5828 5830 5831 5832 5834 5835 5836 5837 5838 5840 5841 5842 5844 5845 5846 5848 5850 5852 5852 5854 5856 5858 5858 5861 5864 5864 5864 5866 5868 5870 5872 5875 5879 5882 5883 5886 5887 5888 5889 5892 5893 5894 5894 5896 5897 5899 5900 5900 5900 5900 5901 5902 5904 5906 5906 5906 5906 5906
5828 5828 5827 5826 5824 5824 5822 5821 5820 5818 5818 5816 5816 5815 5814 5814 5814 5816 5816 5817 5818 5818 5820 5820 5821 5822 5822 5822 5823 5824 5824 5826 5826 5828 5830 5830 5832 5833 5834 5836 5837 5839 5840 5842 5844 5845 5846 5848 5850 5852 5854 5856 5857 5859 5861 5862 5863 5864 5866 5868 5870 5874 5878 5880 5882 5884 5886 5886 5888 5890 5892 5892 5894 5896 5896 5898 5898 5899 5900 5900 5900 5901 5902 5904 5906 5906 5906 5906
5824 5824 5823 5822 5821 5820 5818 5818 5816 5814 5814 5812 5812 5811 5810 5810 5810 5810 5811 5812 5812 5814 5815 5816 5816 5818 5818 5819 5820 5820 5820 5822 5822 5824 5825 5826 5827 5828 5830 5832 5833 5835 5837 5839 5840 5842 5843 5845 5847 5850 5851 5852 5854 5857 5859 5860 5860 5862 5864 5867 5870 5874 5877 5878 5880 5883 5884 5884 5886 5889 5891 5891 5893 5894 5896 5897 5898 5898 5899 5899 5900 5900 5902 5904 5904 5905 5906 5906
5820 5819 5818 5818 5816 5816 5814 5813 5812 5810 5809 5808 5808 5807 5806 5806 5806 5806 5806 5807 5808 5808 5810 5810 5812 5812 5813 5815 5816 5815 5816 5817 5818 5819 5820 5822 5822 5824 5826 5827 5829 5830 5833 5834 5836 5838 5840 5842 5844 5846 5848 5850 5852 5854 5856 5858 5858 5860 5864 5868 5870 5872 5875 5876 5878 5881 5882 5882 5884 5888 5890 5890 5891 5893 5894 5896 5896 5898 5898 5898 5899 5900 5901 5902 5904 5904 5905 5906
5815 5814 5814 5812 5811 5810 5810 5808 5807 5806 5804 5804 5802 5802 5802 5801 5800 5802 5802 5802 5803 5804 5804 5804 5806 5807 5808 5810 5811 5810 5812 5812 5814 5815 5817 5818 5818 5820 5821 5822 5824 5826 5828 5830 5832 5834 5836 5839 5842 5842 5844 5847 5850 5852 5854 5858 5860 5862 5865 5868 5869 5870 5872 5874 5876 5878 5879 5880 5882 5885 5888 5888 5889 5891 5892 5894 5895 5896 5898 5898 5898 5898 5900 5900 5902 5903 5904 5904
5810 5808 5808 5806 5805 5804 5804 5802 5802 5800 5799 5798 5798 5797 5797 5796 5795 5796 5796 5797 5798 5798 5798 5800 5800 5801 5802 5804 5806 5806 5806 5808 5810 5812 5813 5814 5814 5816 5816 5818 5820 5822 5824 5826 5828 5830 5833 5836 5837 5840 5844 5848 5850 5852 5854 5857 5860 5862 5864 5865 5866 5868 5870 5872 5874 5875 5876 5878 5879 5882 5886 5886 5886 5888 5890 5892 5893 5894 5896 5896 5896 5898 5898 5900 5900 5902 5903 5904
5804 5802 5802 5800 5799 5798 5797 5796 5795 5794 5794 5792 5792 5790 5790 5790 5788 5789 5790 5791 5792 5792 5793 5794 5795 5795 5796 5798 5800 5800 5801 5802 5805 5807 5808 5810 5810 5811 5812 5814 5815 5817 5820 5823 5825 5827 5829 5830 5833 5840 5845 5847 5847 5848 5850 5852 5855 5857 5859 5860 5862 5864 5866 5869 5870 5872 5873 5874 5876 5880 5882 5883 5884 5886 5888 5888 5890 5891 5894 5896 5896 5897 5898 5898 5900 5900 5902 5902
5800 5798 5796 5794 5793 5792 5791 5789 5788 5788 5786 5786 5784 5784 5783 5783 5782 5780 5782 5784 5784 5786 5786 5788 5789 5789 5790 5791 5792 5794 5795 5796 5800 5802 5803 5804 5804 5806 5808 5809 5810 5813 5816 5820 5820 5822 5822 5826 5832 5840 5842 5840 5841 5843 5845 5847 5850 5852 5854 5856 5860 5860 5863 5866 5866 5868 5869 5871 5874 5876 5878 5880 5882 5882 5884 5885 5887 5890 5892 5894 5896 5896 5896 5896 5898 5899 5900 5901
5794 5792 5790 5789 5787 5786 5784 5782 5781 5780 5779 5778 5776 5775 5775 5776 5776 5774 5774 5774 5776 5778 5778 5781 5782 5782 5784 5784 5786 5788 5788 5790 5792 5795 5797 5798 5799 5800 5802 5804 5806 5809 5812 5813 5814 5816 5818 5824 5834 5836 5835 5835 5837 5838 5840 5842 5845 5846 5848 5852 5855 5858 5861 5863 5864 5864 5865 5868 5871 5872 5874 5878 5878 5879 5880 5882 5885 5888 5890 5892 5894 5894 5894 5895 5896 5897 5899 5900
5788 5786 5784 5782 5780 5779 5777 5774 5774 5772 5772 5770 5768 5767 5766 5768 5768 5768 5767 5766 5768 5769 5770 5772 5774 5774 5776 5777 5778 5780 5782 5783 5786 5788 5791 5792 5794 5795 5798 5800 5802 5804 5806 5807 5810 5812 5816 5824 5832 5831 5829 5831 5832 5834 5836 5838 5840 5842 5844 5848 5851 5855 5859 5860 5860 5860 5860 5864 5868 5868 5870 5874 5874 5875 5877 5880 5883 5885 5886 5888 5890 5891 5892 5893 5894 5894 5896 5898
5782 5780 5778 5776 5774 5772 5770 5768 5766 5765 5764 5764 5762 5760 5760 5760 5760 5760 5760 5759 5760 5762 5762 5763 5765 5766 5768 5770 5772 5774 5774 5776 5778 5780 5784 5786 5788 5790 5792 5794 5796 5798 5800 5802 5805 5808 5812 5820 5826 5824 5824 5827 5828 5830 5833 5835 5837 5839 5841 5844 5848 5852 5855 5856 5856 5856 5856 5860 5864 5866 5865 5868 5870 5872 5876 5878 5880 5882 5884 5886 5888 5890 5890 5890 5890 5892 5894 5896
5776 5774 5772 5770 5768 5766 5764 5762 5760 5758 5758 5757 5756 5754 5754 5754 5754 5754 5754 5754 5754 5755 5755 5756 5757 5759 5760 5762 5764 5765 5767 5769 5770 5773 5776 5778 5781 5784 5785 5788 5790 5792 5794 5798 5799 5802 5808 5815 5819 5818 5818 5822 5824 5826 5829 5832 5834 5836 5839 5842 5846 5848 5850 5852 5853 5853 5853 5855 5860 5862 5860 5863 5867 5870 5872 5875 5876 5878 5881 5884 5887 5889 5888 5888 5890 5892 5894 5894
5770 5768 5766 5764 5762 5760 5758 5756 5754 5753 5752 5751 5751 5750 5750 5750 5750 5749 5749 5748 5748 5749 5750 5750 5750 5752 5754 5756 5756 5758 5760 5762 5763 5766 5768 5771 5774 5776 5778 5781 5784 5786 5789 5792 5792 5796 5802 5810 5813 5811 5813 5816 5818 5820 5824 5828 5830 5834 5838 5840 5840 5842 5844 5846 5849 5849 5848 5850 5855 5857 5856 5859 5863 5865 5868 5870 5872 5876 5878 5880 5885 5887 5886 5888 5890 5892 5893 5894
5764 5762 5761 5759 5757 5756 5754 5752 5751 5750 5748 5747 5746 5746 5745 5746 5746 5746 5746 5745 5744 5744 5745 5745 5746 5747 5748 5749 5750 5752 5752 5754 5756 5758 5760 5764 5766 5769 5772 5774 5776 5779 5782 5784 5786 5790 5798 5804 5806 5806 5808 5811 5814 5818 5822 5824 5828 5832 5836 5836 5835 5838 5839 5842 5844 5844 5844 5847 5850 5852 5852 5854 5857 5860 5864 5866 5868 5872 5874 5876 5882 5884 5885 5887 5890 5891 5892 5893
5760 5758 5756 5756 5754 5752 5751 5750 5748 5747 5746 5744 5744 5743 5742 5742 5742 5742 5742 5742 5742 5741 5741 5741 5741 5742 5744 5744 5744 5746 5746 5748 5750 5751 5753 5756 5758 5762 5765 5766 5770 5772 5774 5778 5780 5786 5794 5798 5800 5802 5802 5806 5812 5816 5820 5821 5823 5828 5832 5830 5830 5834 5834 5837 5838 5838 5841 5842 5844 5846 5846 5848 5852 5858 5861 5862 5864 5868 5870 5874 5878 5881 5884 5886 5888 5890 5891 5892
5757 5756 5754 5752 5750 5748 5748 5746 5745 5744 5743 5742 5741 5740 5738 5738 5738 5738 5738 5737 5738 5738 5737 5738 5738 5738 5739 5739 5739 5740 5740 5742 5743 5744 5746 5749 5751 5754 5758 5759 5762 5765 5768 5772 5774 5780 5788 5792 5794 5795 5797 5802 5808 5812 5814 5814 5818 5824 5825 5824 5826 5828 5828 5831 5831 5834 5836 5833 5834 5840 5842 5842 5848 5854 5856 5857 5862 5866 5869 5874 5876 5879 5882 5884 5886 5888 5890 5890
5754 5752 5751 5750 5748 5746 5744 5742 5742 5741 5740 5738 5738 5736 5735 5734 5734 5733 5733 5732 5733 5734 5734 5734 5734 5734 5734 5734 5734 5734 5736 5737 5738 5738 5740 5742 5744 5747 5750 5752 5756 5758 5761 5764 5768 5773 5780 5785 5787 5788 5791 5796 5802 5805 5806 5808 5813 5818 5818 5818 5820 5821 5823 5825 5826 5830 5828 5823 5828 5836 5838 5838 5842 5849 5852 5854 5860 5865 5868 5871 5874 5876 5880 5882 5885 5886 5887 5888
5752 5750 5748 5747 5745 5743 5740 5738 5737 5736 5736 5734 5734 5732 5732 5730 5730 5729 5728 5728 5728 5729 5730 5730 5730 5730 5730 5730 5729 5729 5730 5732 5734 5734 5734 5736 5738 5740 5742 5746 5749 5752 5753 5756 5760 5766 5773 5779 5780 5782 5785 5788 5794 5797 5799 5802 5807 5810 5811 5812 5814 5816 5818 5820 5822 5824 5820 5818 5826 5834 5836 5834 5837 5845 5850 5853 5858 5862 5864 5868 5871 5874 5878 5881 5884 5884 5886 5887
5748 5746 5745 5744 5742 5740 5738 5735 5734 5732 5732 5730 5729 5728 5728 5726 5726 5725 5724 5724 5724 5724 5725 5725 5725 5726 5726 5726 5725 5725 5726 5726 5728 5730 5730 5730 5732 5734 5736 5739 5742 5744 5746 5750 5754 5760 5766 5772 5774 5776 5778 5780 5786 5790 5794 5797 5800 5803 5804 5805 5807 5810 5812 5812 5816 5817 5815 5818 5824 5832 5834 5829 5832 5843 5848 5850 5854 5858 5862 5866 5868 5871 5874 5878 5881 5883 5884 5885
5744 5743 5742 5740 5738 5736 5734 5732 5730 5728 5728 5726 5725 5724 5724 5722 5722 5722 5720 5720 5719 5720 5720 5720 5720 5720 5720 5720 5720 5720 5722 5722 5723 5724 5725 5726 5726 5728 5730 5733 5736 5738 5740 5743 5748 5753 5758 5763 5766 5768 5769 5774 5780 5784 5788 5792 5796 5797 5798 5800 5802 5804 5806 5808 5812 5814 5814 5817 5821 5828 5830 5822 5828 5842 5845 5847 5852 5856 5860 5862 5864 5868 5872 5875 5878 5880 5881 5882
5740 5740 5738 5736 5734 5732 5730 5728 5726 5725 5724 5722 5720 5720 5719 5718 5718 5717 5716 5716 5715 5716 5716 5716 5716 5716 5716 5716 5715 5715 5716 5717 5718 5718 5720 5720 5721 5722 5724 5727 5729 5732 5734 5736 5740 5744 5749 5754 5758 5760 5762 5768 5774 5778 5782 5787 5791 5794 5796 5798 5798 5800 5804 5808 5811 5812 5814 5815 5818 5824 5824 5818 5826 5838 5844 5848 5852 5854 5857 5859 5862 5866 5868 5872 5874 5875 5877 5879
5736 5735 5734 5732 5730 5728 5726 5724 5722 5720 5719 5718 5716 5715 5714 5714 5714 5713 5712 5712 5712 5712 5711 5711 5712 5712 5711 5711 5711 5710 5710 5710 5712 5713 5714 5714 5716 5717 5718 5721 5724 5726 5728 5730 5733 5737 5741 5746 5752 5754 5757 5763 5768 5771 5776 5782 5785 5788 5791 5792 5794 5798 5804 5806 5808 5811 5812 5814 5815 5817 5817 5816 5824 5837 5843 5846 5848 5850 5854 5856 5859 5862 5865 5868 5870 5872 5875 5878
5733 5731 5730 5728 5726 5724 5722 5720 5718 5717 5715 5714 5712 5710 5710 5710 5709 5708 5708 5708 5707 5706 5706 5706 5706 5706 5706 5706 5706 5706 5706 5705 5706 5708 5708 5708 5710 5712 5713 5715 5717 5720 5722 5724 5726 5730 5734 5740 5746 5748 5750 5756 5762 5765 5770 5775 5780 5784 5784 5786 5790 5798 5801 5800 5803 5806 5807 5809 5808 5809 5814 5818 5826 5836 5841 5842 5845 5848 5852 5854 5856 5860 5862 5864 5866 5870 5873 5876
5729 5727 5725 5723 5722 5720 5718 5716 5714 5713 5712 5710 5708 5706 5706 5705 5704 5704 5704 5702 5702 5702 5701 5700 5700 5701 5700 5702 5702 5701 5700 5700 5700 5701 5702 5703 5704 5706 5708 5709 5710 5714 5716 5718 5720 5722 5728 5734 5739 5741 5744 5750 5755 5759 5764 5769 5774 5778 5780 5784 5790 5793 5792 5792 5796 5800 5801 5802 5802 5803 5811 5818 5824 5832 5836 5839 5844 5846 5849 5852 5853 5856 5858 5860 5864 5868 5870 5874
5726 5724 5722 5720 5718 5716 5714 5712 5710 5708 5707 5705 5704 5702 5702 5700 5700 5699 5698 5698 5697 5696 5696 5696 5696 5695 5695 5696 5696 5696 5696 5694 5694 5695 5696 5698 5698 5700 5702 5703 5704 5706 5710 5712 5714 5717 5722 5727 5731 5734 5738 5743 5748 5753 5758 5762 5766 5772 5776 5780 5783 5784 5784 5786 5790 5794 5796 5797 5797 5800 5807 5814 5820 5828 5832 5836 5842 5844 5848 5850 5850 5852 5855 5858 5863 5866 5868 5871
5723 5721 5719 5717 5715 5712 5710 5708 5706 5704 5702 5700 5700 5698 5697 5696 5695 5694 5693 5692 5692 5691 5690 5690 5690 5690 5689 5689 5690 5690 5690 5689 5688 5689 5690 5691 5692 5694 5696 5697 5698 5700 5702 5706 5708 5712 5715 5718 5724 5729 5732 5736 5742 5745 5750 5754 5759 5764 5768 5772 5775 5776 5780 5784 5787 5790 5794 5794 5795 5798 5803 5810 5818 5826 5830 5834 5839 5842 5844 5847 5848 5850 5854 5858 5862 5864 5867 5869
5720 5718 5716 5714 5712 5709 5706 5704 5702 5700 5698 5696 5695 5694 5692 5691 5690 5690 5688 5687 5686 5686 5684 5684 5684 5683 5682 5682 5682 5683 5683 5682 5682 5682 5683 5684 5686 5688 5689 5691 5693 5694 5696 5698 5702 5706 5708 5710 5718 5724 5726 5730 5734 5738 5743 5748 5752 5756 5760 5763 5766 5770 5774 5779 5782 5786 5790 5791 5792 5795 5798 5808 5818 5824 5827 5831 5836 5838 5841 5844 5846 5849 5852 5856 5859 5862 5864 5866
5717 5715 5713 5710 5708 5706 5704 5701 5698 5696 5694 5692 5691 5690 5688 5686 5686 5684 5684 5682 5682 5680 5679 5678 5677 5676 5675 5675 5674 5675 5676 5676 5676 5676 5676 5676 5678 5680 5682 5684 5686 5688 5690 5691 5694 5698 5702 5704 5710 5717 5719 5722 5728 5732 5738 5742 5744 5748 5753 5756 5760 5764 5769 5772 5776 5780 5784 5786 5788 5790 5794 5804 5816 5820 5822 5826 5831 5834 5838 5841 5844 5847 5850 5853 5856 5860 5862 5864
5714 5712 5710 5708 5705 5702 5700 5698 5696 5693 5691 5689 5687 5686 5684 5682 5681 5680 5679 5678 5676 5675 5674 5672 5670 5669 5668 5667 5666 5666 5666 5667 5668 5668 5668 5669 5670 5672 5674 5677 5678 5680 5683 5684 5686 5690 5695 5698 5703 5710 5713 5716 5722 5726 5730 5734 5738 5742 5747 5750 5755 5760 5763 5766 5772 5776 5779 5782 5785 5786 5788 5800 5813 5816 5818 5822 5826 5830 5834 5838 5842 5845 5848 5851 5854 5856 5860 5862
5712 5710 5708 5705 5702 5700 5696 5694 5692 5690 5688 5686 5684 5682 5680 5679 5678 5676 5674 5673 5672 5670 5668 5666 5664 5662 5660 5659 5658 5657 5657 5657 5658 5660 5660 5660 5662 5662 5665 5668 5670 5672 5676 5678 5679 5682 5687 5692 5696 5702 5708 5712 5716 5719 5722 5728 5732 5736 5740 5744 5750 5754 5757 5762 5768 5771 5774 5777 5781 5782 5783 5796 5810 5814 5815 5820 5823 5826 5830 5833 5838 5842 5845 5848 5852 5854 5856 5859
5710 5708 5706 5702 5700 5696 5694 5692 5689 5687 5685 5683 5682 5680 5678 5676 5674 5672 5670 5669 5666 5664 5662 5660 5658 5655 5652 5651 5650 5648 5648 5648 5649 5650 5652 5652 5652 5654 5656 5658 5662 5664 5667 5670 5672 5674 5679 5684 5689 5694 5701 5706 5708 5710 5714 5720 5725 5730 5734 5738 5744 5748 5752 5758 5762 5766 5769 5772 5777 5780 5779 5792 5808 5812 5812 5816 5820 5823 5826 5828 5832 5837 5841 5844 5848 5850 5852 5856
5708 5706 5704 5700 5698 5694 5692 5690 5687 5684 5682 5680 5679 5677 5674 5672 5670 5668 5666 5664 5662 5658 5656 5652 5650 5647 5644 5643 5642 5640 5640 5640 5641 5642 5644 5644 5644 5646 5647 5649 5652 5656 5658 5661 5664 5668 5672 5676 5682 5687 5692 5697 5700 5702 5706 5712 5718 5723 5728 5732 5738 5742 5746 5752 5756 5759 5762 5766 5773 5776 5776 5789 5806 5810 5810 5813 5816 5820 5823 5825 5828 5832 5836 5840 5843 5846 5849 5852
5706 5704 5701 5698 5695 5692 5690 5688 5685 5683 5681 5678 5676 5674 5672 5669 5666 5664 5662 5659 5656 5652 5649 5646 5642 5640 5638 5636 5634 5634 5632 5634 5634 5636 5636 5636 5637 5639 5640 5642 5645 5648 5650 5654 5657 5661 5664 5668 5674 5678 5683 5689 5694 5698 5702 5706 5712 5718 5722 5726 5732 5736 5740 5746 5749 5752 5758 5762 5769 5772 5774 5788 5803 5806 5806 5810 5812 5814 5818 5822 5826 5828 5832 5835 5838 5842 5844 5847
5704 5702 5699 5696 5694 5690 5688 5686 5683 5681 5679 5676 5674 5672 5668 5666 5663 5660 5658 5654 5650 5646 5642 5639 5636 5634 5632 5630 5630 5629 5628 5629 5630 5630 5630 5632 5632 5634 5636 5638 5640 5641 5644 5647 5650 5654 5658 5662 5666 5670 5676 5682 5688 5692 5695 5700 5705 5711 5716 5721 5726 5731 5735 5740 5743 5748 5754 5758 5764 5767 5773 5786 5798 5800 5801 5804 5807 5810 5813 5816 5820 5822 5826 5829 5832 5835 5838 5841
5703 5700 5698 5695 5692 5690 5686 5684 5682 5679 5677 5674 5672 5669 5666 5663 5660 5656 5652 5648 5644 5640 5636 5633 5631 5629 5628 5626 5626 5626 5626 5626 5627 5627 5628 5628 5629 5630 5632 5633 5634 5636 5638 5640 5644 5646 5650 5656 5658 5662 5668 5675 5680 5684 5688 5692 5699 5705 5710 5716 5721 5725 5729 5734 5738 5744 5750 5752 5756 5764 5772 5782 5791 5795 5798 5802 5804 5806 5808 5810 5813 5816 5820 5823 5826 5830 5832 5836
5702 5700 5697 5694 5692 5688 5686 5683 5680 5678 5676 5672 5670 5666 5663 5660 5656 5652 5648 5644 5639 5635 5632 5630 5628 5626 5625 5624 5624 5624 5624 5624 5625 5625 5625 5626 5626 5627 5628 5628 5630 5632 5634 5636 5638 5640 5644 5649 5652 5655 5660 5668 5674 5679 5682 5688 5693 5698 5704 5710 5715 5719 5724 5729 5734 5740 5744 5745 5752 5761 5770 5778 5786 5791 5795 5798 5800 5802 5804 5806 5808 5812 5815 5818 5822 5824 5828 5832
5701 5698 5696 5694 5690 5688 5685 5682 5680 5676 5674 5670 5668 5664 5660 5656 5653 5648 5644 5640 5635 5631 5629 5627 5626 5624 5624 5624 5623 5623 5623 5622 5622 5622 5622 5622 5624 5624 5624 5626 5626 5628 5630 5631 5634 5636 5639 5644 5646 5648 5654 5661 5668 5672 5677 5681 5686 5692 5698 5704 5710 5714 5720 5724 5730 5735 5736 5740 5749 5758 5766 5775 5782 5786 5790 5794 5796 5798 5800 5803 5806 5808 5811 5814 5817 5820 5824 5828
5700 5698 5695 5692 5690 5686 5684 5682 5678 5675 5672 5668 5666 5662 5658 5654 5650 5644 5640 5636 5632 5628 5626 5626 5624 5624 5623 5622 5622 5621 5620 5620 5620 5620 5620 5620 5620 5621 5622 5622 5624 5624 5626 5627 5629 5632 5634 5638 5641 5642 5647 5654 5660 5665 5670 5675 5680 5686 5692 5698 5705 5710 5715 5720 5726 5729 5731 5736 5745 5752 5762 5772 5776 5780 5785 5789 5790 5793 5797 5801 5804 5806 5809 5812 5814 5818 5821 5824
5700 5697 5694 5692 5688 5686 5683 5680 5677 5674 5670 5668 5664 5660 5655 5651 5646 5642 5637 5634 5630 5628 5626 5624 5623 5622 5622 5621 5620 5619 5618 5618 5618 5617 5617 5617 5618 5618 5618 5620 5620 5621 5622 5624 5624 5628 5630 5632 5635 5636 5641 5648 5654 5658 5664 5670 5672 5678 5686 5696 5702 5706 5711 5716 5720 5722 5727 5734 5741 5748 5758 5768 5773 5776 5781 5784 5786 5790 5794 5798 5802 5804 5807 5810 5812 5815 5818 5820